カタログに戻る

STARLINK-34594

運用中通信VLEO
NORAD 65088·PAYLOAD·🇺🇸 United States

打ち上げ Aug 4, 2025 から Cape Canaveral Space Force Station

Loading…

次のパス (今後24時間)

TLE

最新Source: CelesTrak SupGP

元期: Sep 14, 2026, 23:10 UTC

1 65088C 25167L   26257.96576389  .00008411  00000+0  24838-3 0  2571
2 65088  53.1593 227.2492 0001519  91.7206 219.0789 15.34402895    12

AllMySatでSTARLINK-34594をリアルタイム追跡

Download on the App Store